Weather History for Hill City, KS

Change the Weather History Date:

Friday, May 24, 2013

  Actual Average Record
Temperature  
Mean Temperature 70 °F 65 °F  
Max Temperature 84 °F 78 °F 101 °F (1953)
Min Temperature 56 °F 53 °F 33 °F (1966)
Cooling Degree Days 4    
Growing Degree Days 20 (Base 50)    
Moisture  
Dew Point 57 °F    
Average Humidity 72    
Maximum Humidity 88    
Minimum Humidity 42    
Precipitation  
Precipitation T in 0.11 in 1.43 in (2011)
Month to date precipitation 1.25 2.89  
Year to date precipitation 3.47 7.61  
Sea Level Pressure  
Sea Level Pressure 30.06 in    
Wind  
Wind Speed 15 mph (SE)    
Max Wind Speed 25 mph    
Max Gust Speed 37 mph    
Visibility 10 miles    
Events Rain    
T = Trace of Precipitation, MM = Missing Value Source: NWS Daily Summary

Daily Weather History Graph

Daily Weather History Graph

Search for Another Location

Airport:

Trip Planner

Search our weather history database for the weather conditions in past years. The results will help you decide how hot, cold, wet, or windy it might be!

Date:

Astronomy

May. 24, 2013 Rise Set
Actual Time 6:18 AM CDT 8:54 PM CDT
Civil Twilight 5:47 AM CDT 9:25 PM CDT
Nautical Twilight 5:08 AM CDT 10:04 PM CDT
Astronomical Twilight 4:25 AM CDT 10:48 PM CDT
Moon 8:38 PM CDT (5/24) 5:51 AM CDT (5/24)
Length of Visible Light 15h 38m
Length of Day
14h 35m
Full, 100% of the Moon is Illuminated
May 24
Full
May 24
Full
May 31
Last Quarter
Jun 8
New
Jun 16
First Quarter

Hourly Weather History & Observations

Time (CDT) Temp. Heat Index Dew Point Humidity Pressure Visibility Wind Dir Wind Speed Gust Speed Precip Events Conditions
12:53 AM 57.9 °F - 52.0 °F 81% 30.14 in 10.0 mi East 11.5 mph - N/A   Clear
1:53 AM 55.9 °F - 52.0 °F 87% 30.14 in 10.0 mi East 10.4 mph - N/A   Mostly Cloudy
2:53 AM 57.0 °F - 53.1 °F 87% 30.14 in 10.0 mi ESE 10.4 mph - N/A   Mostly Cloudy
3:53 AM 59.0 °F - 53.1 °F 81% 30.12 in 10.0 mi SE 12.7 mph - N/A   Overcast
4:53 AM 57.9 °F - 53.1 °F 84% 30.12 in 10.0 mi ESE 13.8 mph 19.6 mph 0.00 in   Overcast
5:02 AM 57.2 °F - 53.6 °F 88% 30.15 in 10.0 mi SE 16.1 mph 20.7 mph N/A   Overcast
5:17 AM 57.2 °F - 53.6 °F 88% 30.15 in 10.0 mi SE 10.4 mph - N/A   Overcast
5:53 AM 57.0 °F - 53.1 °F 87% 30.11 in 10.0 mi ESE 9.2 mph 19.6 mph N/A   Overcast
6:53 AM 57.0 °F - 53.1 °F 87% 30.12 in 10.0 mi ESE 11.5 mph - N/A   Overcast
7:53 AM 57.9 °F - 54.0 °F 87% 30.13 in 10.0 mi SE 15.0 mph 19.6 mph N/A   Overcast
8:53 AM 57.9 °F - 54.0 °F 87% 30.17 in 10.0 mi SSE 11.5 mph - N/A   Overcast
9:53 AM 63.0 °F - 55.0 °F 75% 30.14 in 10.0 mi SSE 18.4 mph 25.3 mph N/A   Overcast
10:20 AM 62.6 °F - 55.4 °F 77% 30.15 in 10.0 mi SSE 17.3 mph 24.2 mph N/A   Mostly Cloudy
10:37 AM 66.2 °F - 55.4 °F 68% 30.15 in 10.0 mi SSE 18.4 mph 26.5 mph N/A   Scattered Clouds
10:53 AM 66.0 °F - 55.0 °F 68% 30.12 in 10.0 mi SSE 20.7 mph 28.8 mph N/A   Mostly Cloudy
11:32 AM 68.0 °F - 55.4 °F 64% 30.14 in 10.0 mi SSE 17.3 mph 28.8 mph N/A   Overcast
11:53 AM 69.1 °F - 55.9 °F 63% 30.09 in 10.0 mi SSE 18.4 mph 27.6 mph N/A   Overcast
12:53 PM 72.0 °F - 57.9 °F 61% 30.08 in 10.0 mi SSE 18.4 mph 26.5 mph N/A   Mostly Cloudy
1:14 PM 75.2 °F - 59.0 °F 57% 30.10 in 10.0 mi South 17.3 mph 28.8 mph N/A   Scattered Clouds
1:53 PM 75.9 °F - 59.0 °F 56% 30.04 in 10.0 mi SSE 25.3 mph 36.8 mph N/A   Partly Cloudy
2:53 PM 81.0 °F 81.3 °F 59.0 °F 47% 30.01 in 10.0 mi SE 18.4 mph 28.8 mph N/A   Scattered Clouds
3:53 PM 82.9 °F 82.6 °F 57.9 °F 42% 29.97 in 10.0 mi SSE 24.2 mph 34.5 mph N/A   Mostly Cloudy
4:53 PM 84.0 °F 83.8 °F 59.0 °F 43% 29.94 in 10.0 mi South 16.1 mph 28.8 mph 0.00 in Rain Light Rain
5:53 PM 81.0 °F 81.7 °F 61.0 °F 50% 29.93 in 10.0 mi SSE 21.9 mph 34.5 mph 0.00 in   Clear
6:53 PM 77.0 °F - 62.1 °F 60% 29.92 in 9.0 mi SSE 17.3 mph 27.6 mph N/A   Clear
7:53 PM 73.9 °F - 63.0 °F 68% 29.93 in 8.0 mi SSE 18.4 mph 25.3 mph N/A   Clear
8:53 PM 72.0 °F - 64.0 °F 76% 29.92 in 8.0 mi SSE 13.8 mph - N/A   Clear
9:42 PM 71.6 °F - 64.4 °F 78% 29.97 in 8.0 mi SSE 16.1 mph 23.0 mph N/A   Mostly Cloudy
9:53 PM 71.1 °F - 64.9 °F 81% 29.93 in 8.0 mi SE 16.1 mph 25.3 mph N/A   Mostly Cloudy
10:53 PM 72.0 °F - 66.9 °F 84% 29.96 in 8.0 mi SSE 20.7 mph 24.2 mph N/A   Overcast
11:53 PM 73.0 °F - 66.9 °F 81% 29.93 in 8.0 mi SSE 16.1 mph 26.5 mph N/A   Overcast